Edithburgh AWS, Australia

3:55 AM ACDT on January 21, 2017 (GMT +1030)
Edithburgh AWS

Weather History for 94809 - October, 2013

Change the Weather History Date:

Saturday, October 5, 2013

  Actual Average Record
Temperature  
Mean Temperature 58 °F -  
Max Temperature 68 °F - - ()
Min Temperature 49 °F - - ()
Degree Days  
Heating Degree Days 6    
Growing Degree Days 8 (Base 50)    
Moisture  
Dew Point 48 °F    
Average Humidity 58    
Maximum Humidity 90    
Minimum Humidity 24    
Precipitation  
Precipitation 0.00 in - - ()
Sea Level Pressure  
Sea Level Pressure 29.85 in    
Wind  
Wind Speed 8 mph ()    
Max Wind Speed 14 mph    
Max Gust Speed -    
T = Trace of Precipitation, MM = Missing Value Source: Averaged Metar Reports

Daily Weather History Graph

Daily Weather History Graph

Search for Another Location

Airport or City:

Trip Planner

Search our weather history database for the weather conditions in past years. The results will help you decide how hot, cold, wet, or windy it might be!

Date:

Astronomy

Oct. 05, 2013 Rise Set
Actual Time 5:50 AM ACST 6:25 PM ACST
Civil Twilight 5:24 AM ACST 6:50 PM ACST
Nautical Twilight 4:54 AM ACST 7:20 PM ACST
Astronomical Twilight 4:24 AM ACST 7:51 PM ACST
Moon 5:38 AM ACST (10/5) 6:44 PM ACST (10/5)
Length of Visible Light 13h 25m
Length of Day
12h 34m
New Moon, 0% of the Moon is Illuminated
Oct 5
New Moon
Oct 12
First Quarter
Oct 19
Full
Oct 27
Last Quarter
Nov 3
New

Hourly Weather History & Observations

Time (ACST) Temp. Dew Point Humidity Pressure Visibility Wind Dir Wind Speed Gust Speed Precip Events Conditions
12:00 AM 49 °F 44 °F 77% 29.87 in - North 5.8 mph - -  
1:30 AM 57 °F 42 °F 46% 29.83 in - North 9.2 mph - -  
2:30 AM 59 °F 39 °F 36% 29.81 in - North 9.2 mph - -  
4:30 AM 57 °F 39 °F 39% 29.79 in - North 9.2 mph - -  
5:30 AM 62 °F 35 °F 25% 29.80 in - North 12.7 mph - -  
6:00 AM 62 °F 35 °F 24% 29.82 in - NNW 12.7 mph - -  
7:30 AM 62 °F 45 °F 43% 29.85 in - NNW 10.4 mph - -  
8:30 AM 64 °F 50 °F 49% 29.84 in - North 11.5 mph - -  
10:30 AM 68 °F 55 °F 54% 29.86 in - WSW 11.5 mph - -  
1:30 PM 67 °F 55 °F 57% 29.84 in - WSW 11.5 mph - -  
2:30 PM 65 °F 54 °F 59% 29.84 in - WSW 11.5 mph - -  
3:00 PM 65 °F 54 °F 59% 29.84 in - WSW 13.8 mph - -  
5:30 PM 61 °F 53 °F 67% 29.86 in - SW 11.5 mph - -  
6:00 PM 60 °F 52 °F 67% 29.87 in - SW 11.5 mph - -  
7:30 PM 57 °F 52 °F 76% 29.89 in - WSW 8.1 mph - -  
8:30 PM 56 °F 51 °F 78% 29.90 in - WSW 6.9 mph - -  
9:00 PM 55 °F 51 °F 80% 29.91 in - WSW 6.9 mph - -  
10:30 PM 54 °F 50 °F 83% 29.91 in - WSW 5.8 mph - -  
11:30 PM 50 °F 48 °F 90% 29.90 in - WNW 5.8 mph - -